Location: *
(43.0167°S, 179.9000°E)
Time: 20:15:01
(UTC+00:00)

SL-16 R/B - Pass Details

Date: 12 August 2024
Orbit: 986 x 1006 km, 99.7° (Epoch: 20 September)

Event Time Altitude Azimuth Distance (km) Brightness Sun altitude
Rises 17:09:50 0° 175° (S) 3,757 5.6 -20.0°
Reaches altitude 10° 17:12:42 10° 186° (S) 2,797 4.8 -19.5°
Maximum altitude 17:17:47 27° 240° (WSW) 1,831 3.4 -18.6°
Enters shadow 17:18:00 27° 244° (WSW) 1,832 3.4 -18.5°
